Torna al catalogo

OBJECT A

AttivoVLEO
NORAD 100080·UNKNOWN·🇮🇳 India

Lanciato Jul 18, 2026 da Satish Dhawan Space Centre

Loading…

Prossimi Passaggi (prossime 24 ore)

TLE

AggiornatoSource: Space-Track

Epoca: Sep 14, 2026, 11:36 UTC

1 A0080U 26164A   26257.48382263  .00006182  00000-0  15865-3 0  9990
2 A0080  59.9271  76.0453 0021405   7.3248 352.8147 15.40404054  8975

Traccia OBJECT A in tempo reale con AllMySat

Download on the App Store